sat.trackr.live / text

‹ back to catalog

STARLINK-37113

NORAD 68318 · 2026-057AA

PAYLOAD ACTIVE UNKNOWN

§ Identity

Operator
Country
US
Launch date
2026-03-20
Launch site
AFWTR
Launch vehicle
Mass (kg)
RCS (m²)

Purposes: comms

External: N2YO · Heavens-Above · Gunter

§ Orbital elements

Epoch: 2026-09-19T14:52:38.775936Z

Period
93.91 min
Inclination
97.2848°
Eccentricity
0.0001240
Mean motion
15.33434670 rev/d
Perigee alt
464.7 km
Apogee alt
466.4 km
Semi-major
6,843.7 km
B*
6.2359e-4
RAAN
27.9536°
Arg perigee
90.7139°
Mean anomaly
269.4246°
Rev number
2,837

§ Raw data

STARLINK-371131 68318U 26057AA  26262.61989324  .00020104  00000+0  62359-3 0  99902 68318  97.2848  27.9536 0001240  90.7139 269.4246 15.33434670 28373

JSON: /api/v1/satellites/68318 · /tle

For live sub-satellite position, see the globe view (requires WebGL).

§ Visibility from observer

Set your observer location to see the next 7 days of passes ≥ 10°. The values pass through the URL so the page stays shareable.

No JS? Fill the form by hand. The geolocation button needs JavaScript.